{"data":{"norad_id":57496,"epoch":"2026-05-24T18:58:15.615264Z","epoch_age_seconds":83294,"freshness":"FRESH","line1":"1 57496U 23113B   26144.79045851  .00003391  00000+0  13274-3 0  9992","line2":"2 57496  43.0026 306.3063 0001483 258.5774 101.4911 15.27569541155208","mean_motion":15.27569541,"eccentricity":0.0001483,"inclination_deg":43.0026,"raan_deg":306.3063,"arg_perigee_deg":258.5774,"mean_anomaly_deg":101.4911,"bstar":0.00013274,"rev_number":15520,"period_min":94.267394141502,"perigee_km":482.06289568442,"apogee_km":484.09793276948,"semimajor_km":6861.2174142269,"source":"CELESTRAK","updated_at":"2026-05-25T13:38:18.326989Z"}}